DELTA 1 DEB, 29187

Orbit data source: Space-Track

DELTA 1 DEB, 29187 is space debris in LEO originally from a launch on Thu, 11 Jan 1968 UTC launched from the Air Force Western Test Range (AFWTR). Debris objects in space refer to the collection of defunct objects orbiting the Earth. Examples of debris include non-operational satellites, rocket bodies, and fragments generated from explosions, collisions, or faulty payload assembly.

Loading next visibility...
Identifier
29187, 1968-002L
Orbit
LEO
Country
Flag of USUS
Related business
Manufacturer
Unknown
Mission
Spacecraft
Bus & Motor
Unknown
Mass
Unknown
Launch date (UTC)
1968-01-11 (58 years ago)
Launch vehicle
Unknown
Launch site
Air Force Western Test Range (AFWTR)
Object type
Payload
Rocket body
Debris
Shape & HBR
Unknown shape, 0.1 m
Radar Cross Section
Small (<0.1 m²)

Expand to show TLE details & history
Last TLE update: 2 weeks ago

TLE from 2 weeks ago
0 DELTA 1 DEB
1 29187U 68002L   26138.57529715  .00000114  00000-0  59535-3 0  9990
2 29187 105.7969 256.6344 0294556 273.1477 103.0527 12.91266540598295
Epoch: 2026-05-18T13:48Z
TLE epoch observation values (Epoch: 2026-05-18T13:48:25.673Z)
Latitude
18.69823°
Longitude
167.79864°
Altitude
1,355.765 km
Speed
7.155 km/s
True Right ascension
16h 44m 40s
True Declination
18° 36' 08"
Sunlit
Object was in full shadow at epoch
Visualization orbit readout
Latitude
Unknown
Longitude
Unknown
Altitude
Unknown
Speed
Unknown
Apparent Right ascension
Unknown
Apparent Declination
Unknown
Sunlit
N/A
Visualization observer readout
Local Sidereal Time
19:37:09
Azimuth
Unknown
Elevation
Unknown
Doppler factor
Unknown
Orbital elements
Apogee altitude
1,520.268 km
Perigee altitude
1,068.277 km
Semi-major axis
7,672.409 km
Eccentricity
0.02946
Inclination
105.7969°
RAAN
256.6344°
Arg. of periapsis
273.1477°
True anomaly
106.31197°
Mean anomaly
103.0527°
Eccentric anomaly
104.68525°
Mean motion
3.22958 °/min
Orbital period
111.47 mins
BSTAR
0.00059535
Loading maneuver chart data...
Computing Atmospheric mass density...
Loading historical data...
Loading historical data...
Loading historical data...
Loading historical data...
Loading historical data...
Loading historical data...
Loading historical data...

Documentation

Showing up to 5 results
|